Volver al catálogo

FENGYUN 1C DEB

ActivoPO
NORAD 31231·DEBRIS·🇨🇳 China

Lanzado May 10, 1999 desde Taiyuan Satellite Launch Center

Loading…

Próximos Pases (próximas 24 horas)

TLE

EnvejeciendoSource: Space-Track

Época: Sep 10, 2026, 05:54 UTC

1 31231U 99025BLM 26253.24641326  .00011448  00000-0  11113-2 0  9998
2 31231  98.8662  86.6102 0118039 326.1507  33.2210 14.87682514670437

Sigue FENGYUN 1C DEB en tiempo real con AllMySat

Download on the App Store